EZY23CH LEPA-LFMN

Flight info

Callsign EZY23CH
Flight time 1h 3m
Altitude 30000
Route MEROS N853 LUMAS DCT SOFFY DCT MRM DCT ABLAK
Aircraft A320/M-SDE3FGHIRWY/LB1

Departure

Time 2026-05-06 16:35
Airport Palma de Mallorca Airport (LEPA)

Arrival

Time 2026-05-06 17:38
Airport Nice-Côte d'Azur Airport (LFMN)
Time Latitude Longitude Altitude Speed Heading
2026-05-06 16:02 39.54757 2.73632 37 ft 0 kts 58°
2026-05-06 16:20 39.54757 2.73631 38 ft 1 kts 58°
2026-05-06 16:20 39.54745 2.73605 36 ft 2 kts 59°
2026-05-06 16:21 39.54736 2.73579 34 ft 4 kts 91°
2026-05-06 16:21 39.54745 2.73552 36 ft 4 kts 143°
2026-05-06 16:21 39.54766 2.73534 38 ft 4 kts 149°
2026-05-06 16:21 39.54772 2.73530 36 ft 0 kts 149°
2026-05-06 16:24 39.54747 2.73549 38 ft 8 kts 149°
2026-05-06 16:24 39.54701 2.73584 38 ft 7 kts 149°
2026-05-06 16:25 39.54679 2.73601 38 ft 0 kts 149°
2026-05-06 16:25 39.54679 2.73602 38 ft 2 kts 149°
2026-05-06 16:26 39.54620 2.73635 38 ft 11 kts 162°
2026-05-06 16:26 39.54562 2.73637 38 ft 7 kts 210°
2026-05-06 16:26 39.54531 2.73581 38 ft 10 kts 240°
2026-05-06 16:26 39.54494 2.73500 38 ft 10 kts 238°
2026-05-06 16:27 39.54457 2.73427 38 ft 9 kts 236°
2026-05-06 16:27 39.54424 2.73363 37 ft 8 kts 236°
2026-05-06 16:27 39.54396 2.73303 38 ft 7 kts 241°
2026-05-06 16:27 39.54372 2.73247 38 ft 7 kts 241°
2026-05-06 16:28 39.54347 2.73190 38 ft 8 kts 239°
2026-05-06 16:28 39.54320 2.73134 38 ft 7 kts 238°
2026-05-06 16:28 39.54296 2.73083 38 ft 6 kts 238°
2026-05-06 16:28 39.54264 2.73016 38 ft 10 kts 238°
2026-05-06 16:29 39.54230 2.72946 38 ft 9 kts 238°
2026-05-06 16:29 39.54184 2.72913 38 ft 7 kts 169°
2026-05-06 16:29 39.54156 2.72957 38 ft 6 kts 109°
2026-05-06 16:29 39.54153 2.72975 38 ft 0 kts 100°
2026-05-06 16:32 39.54149 2.73025 38 ft 12 kts 91°
2026-05-06 16:32 39.54151 2.73125 38 ft 11 kts 89°
2026-05-06 16:33 39.54152 2.73215 38 ft 9 kts 84°
2026-05-06 16:33 39.54166 2.73254 37 ft 0 kts 58°
2026-05-06 16:34 39.54179 2.73282 38 ft 16 kts 58°
2026-05-06 16:34 39.54386 2.73717 38 ft 94 kts 59°
2026-05-06 16:34 39.54832 2.74660 38 ft 151 kts 58°
2026-05-06 16:34 39.55429 2.75906 518 ft 165 kts 57°
2026-05-06 16:35 39.56046 2.77184 1214 ft 174 kts 58°
2026-05-06 16:35 39.56732 2.78607 1561 ft 199 kts 59°
2026-05-06 16:35 39.57462 2.80222 1959 ft 213 kts 60°
2026-05-06 16:35 39.58210 2.81903 2365 ft 216 kts 60°
2026-05-06 16:36 39.58975 2.83620 2775 ft 218 kts 60°
2026-05-06 16:36 39.59730 2.85304 3176 ft 220 kts 59°
2026-05-06 16:36 39.60506 2.87026 3566 ft 222 kts 59°
2026-05-06 16:36 39.61291 2.88763 3976 ft 224 kts 59°
2026-05-06 16:37 39.62084 2.90514 4381 ft 226 kts 59°
2026-05-06 16:37 39.62909 2.92371 4815 ft 252 kts 60°
2026-05-06 16:37 39.63810 2.94440 5250 ft 270 kts 60°
2026-05-06 16:37 39.64741 2.96586 5704 ft 276 kts 59°
2026-05-06 16:38 39.65980 2.98485 6188 ft 278 kts 36°
2026-05-06 16:38 39.67615 2.99837 6657 ft 279 kts 30°
2026-05-06 16:38 39.69286 3.01143 7125 ft 282 kts 29°
2026-05-06 16:38 39.70976 3.02461 7601 ft 284 kts 29°
2026-05-06 16:39 39.72677 3.03789 8083 ft 287 kts 29°
2026-05-06 16:39 39.74391 3.05131 8564 ft 289 kts 29°
2026-05-06 16:39 39.76119 3.06487 9068 ft 291 kts 30°
2026-05-06 16:39 39.77860 3.07855 9569 ft 295 kts 29°
2026-05-06 16:40 39.79627 3.09241 10046 ft 301 kts 29°
2026-05-06 16:40 39.81489 3.10698 10440 ft 324 kts 29°
2026-05-06 16:40 39.83468 3.12243 10994 ft 337 kts 29°
2026-05-06 16:40 39.85501 3.13832 11741 ft 344 kts 29°
2026-05-06 16:41 39.87569 3.15455 12542 ft 350 kts 29°
2026-05-06 16:41 39.89670 3.17113 13300 ft 356 kts 29°
2026-05-06 16:41 39.91805 3.18801 14014 ft 362 kts 28°
2026-05-06 16:41 39.93971 3.20512 14677 ft 367 kts 28°
2026-05-06 16:42 39.96167 3.22246 15343 ft 372 kts 28°
2026-05-06 16:42 39.98393 3.24002 16004 ft 376 kts 28°
2026-05-06 16:42 40.00648 3.25782 16658 ft 381 kts 28°
2026-05-06 16:42 40.02931 3.27590 17308 ft 386 kts 28°
2026-05-06 16:43 40.05239 3.29421 17966 ft 391 kts 28°
2026-05-06 16:43 40.07577 3.31280 18564 ft 396 kts 28°
2026-05-06 16:43 40.09939 3.33159 19123 ft 400 kts 28°
2026-05-06 16:43 40.12328 3.35061 19675 ft 404 kts 28°
2026-05-06 16:44 40.14745 3.36984 20234 ft 409 kts 28°
2026-05-06 16:44 40.17187 3.38926 20777 ft 413 kts 28°
2026-05-06 16:44 40.19655 3.40885 21325 ft 417 kts 28°
2026-05-06 16:44 40.22153 3.42866 21878 ft 422 kts 27°
2026-05-06 16:45 40.24669 3.44865 22398 ft 426 kts 27°
2026-05-06 16:45 40.27218 3.46895 22914 ft 430 kts 27°
2026-05-06 16:45 40.29782 3.48942 23433 ft 434 kts 28°
2026-05-06 16:45 40.32369 3.51014 23867 ft 438 kts 28°
2026-05-06 16:46 40.34978 3.53111 24295 ft 441 kts 28°
2026-05-06 16:46 40.37603 3.55223 24712 ft 444 kts 28°
2026-05-06 16:46 40.40248 3.57348 25133 ft 448 kts 28°
2026-05-06 16:46 40.42916 3.59490 25571 ft 451 kts 27°
2026-05-06 16:47 40.45611 3.61653 25953 ft 456 kts 27°
2026-05-06 16:47 40.48326 3.63831 26339 ft 459 kts 27°
2026-05-06 16:47 40.51057 3.66023 26744 ft 462 kts 27°
2026-05-06 16:47 40.53811 3.68240 27122 ft 466 kts 27°
2026-05-06 16:48 40.56581 3.70473 27510 ft 469 kts 27°
2026-05-06 16:48 40.59368 3.72723 27890 ft 472 kts 27°
2026-05-06 16:48 40.62184 3.74996 28272 ft 475 kts 27°
2026-05-06 16:48 40.65008 3.77277 28646 ft 478 kts 27°
2026-05-06 16:49 40.67852 3.79578 29012 ft 482 kts 27°
2026-05-06 16:49 40.70714 3.81899 29372 ft 484 kts 28°
2026-05-06 16:49 40.73594 3.84237 29748 ft 487 kts 28°
2026-05-06 16:49 40.76447 3.86551 29916 ft 488 kts 28°
2026-05-06 16:50 40.79287 3.88861 29948 ft 471 kts 28°
2026-05-06 16:50 40.82031 3.91104 29946 ft 458 kts 28°
2026-05-06 16:50 40.84754 3.93326 29975 ft 463 kts 27°
2026-05-06 16:51 40.90257 3.97801 29942 ft 466 kts 27°
2026-05-06 16:51 40.95776 4.02308 29944 ft 466 kts 27°
2026-05-06 16:52 41.01331 4.06854 29954 ft 466 kts 27°
2026-05-06 16:52 41.06854 4.11383 29980 ft 467 kts 27°
2026-05-06 16:53 41.12337 4.15893 29960 ft 467 kts 27°
2026-05-06 16:53 41.17857 4.20440 29915 ft 467 kts 28°
2026-05-06 16:54 41.23370 4.24998 29929 ft 467 kts 28°
2026-05-06 16:54 41.28891 4.29562 29956 ft 467 kts 28°
2026-05-06 16:55 41.33481 4.33367 29948 ft 468 kts 28°
2026-05-06 16:55 41.39036 4.37983 29944 ft 468 kts 28°
2026-05-06 16:56 41.44561 4.42591 29944 ft 468 kts 28°
2026-05-06 16:56 41.50049 4.47161 29972 ft 468 kts 28°
2026-05-06 16:57 41.55576 4.51771 29950 ft 469 kts 28°
2026-05-06 16:57 41.61106 4.56399 29943 ft 469 kts 28°
2026-05-06 16:58 41.66633 4.61031 29920 ft 469 kts 28°
2026-05-06 16:58 41.72187 4.65614 29952 ft 467 kts 23°
2026-05-06 16:59 41.78201 4.68583 29938 ft 458 kts 10°
2026-05-06 16:59 41.84328 4.70960 29936 ft 459 kts 10°
2026-05-06 17:00 41.90504 4.73389 29959 ft 460 kts 10°
2026-05-06 17:00 41.96644 4.75815 29948 ft 460 kts 10°
2026-05-06 17:01 42.02751 4.78220 29948 ft 460 kts 10°
2026-05-06 17:01 42.08897 4.80651 29940 ft 460 kts 11°
2026-05-06 17:02 42.15039 4.83085 29976 ft 460 kts 11°
2026-05-06 17:02 42.21176 4.85517 29967 ft 460 kts 11°
2026-05-06 17:03 42.27318 4.87953 29959 ft 459 kts 11°
2026-05-06 17:03 42.33449 4.90391 29966 ft 459 kts 11°
2026-05-06 17:04 42.39574 4.92826 29956 ft 459 kts 11°
2026-05-06 17:04 42.45702 4.95279 29947 ft 459 kts 11°
2026-05-06 17:05 42.51822 4.97736 29944 ft 459 kts 11°
2026-05-06 17:05 42.57958 5.00194 29929 ft 460 kts 11°
2026-05-06 17:06 42.64098 5.02661 29923 ft 460 kts 11°
2026-05-06 17:06 42.70244 5.05132 29920 ft 460 kts 11°
2026-05-06 17:07 42.76388 5.07618 29910 ft 460 kts 11°
2026-05-06 17:07 42.82528 5.10113 29915 ft 461 kts 11°
2026-05-06 17:08 42.88672 5.12610 29917 ft 461 kts 11°
2026-05-06 17:08 42.91747 5.13858 29771 ft 460 kts 11°
2026-05-06 17:08 42.94788 5.15096 29465 ft 451 kts 11°
2026-05-06 17:08 42.97761 5.16311 29181 ft 441 kts 11°
2026-05-06 17:09 43.00678 5.17507 28898 ft 436 kts 11°
2026-05-06 17:09 43.03568 5.18690 28619 ft 432 kts 11°
2026-05-06 17:09 43.06444 5.19860 28349 ft 430 kts 10°
2026-05-06 17:09 43.09309 5.21021 28073 ft 428 kts 10°
2026-05-06 17:10 43.12153 5.22176 27828 ft 426 kts 11°
2026-05-06 17:10 43.14987 5.23330 27563 ft 424 kts 11°
2026-05-06 17:10 43.17806 5.24481 27297 ft 422 kts 11°
2026-05-06 17:10 43.20613 5.25628 27029 ft 420 kts 11°
2026-05-06 17:11 43.23396 5.26764 26782 ft 414 kts 11°
2026-05-06 17:11 43.26142 5.27885 26354 ft 410 kts 11°
2026-05-06 17:11 43.28867 5.28998 25919 ft 407 kts 11°
2026-05-06 17:11 43.31572 5.30107 25494 ft 404 kts 11°
2026-05-06 17:12 43.34266 5.31212 25019 ft 402 kts 11°
2026-05-06 17:12 43.36887 5.32388 24566 ft 403 kts 18°
2026-05-06 17:12 43.39394 5.34137 24076 ft 406 kts 29°
2026-05-06 17:12 43.41751 5.36273 23615 ft 406 kts 30°
2026-05-06 17:13 43.44111 5.38413 23078 ft 405 kts 30°
2026-05-06 17:13 43.46459 5.40533 22603 ft 402 kts 31°
2026-05-06 17:13 43.48629 5.42960 22134 ft 403 kts 43°
2026-05-06 17:13 43.50399 5.45935 21710 ft 401 kts 56°
2026-05-06 17:14 43.51682 5.49297 21396 ft 394 kts 69°
2026-05-06 17:14 43.52659 5.52793 21060 ft 388 kts 69°
2026-05-06 17:14 43.53623 5.56238 20740 ft 382 kts 69°
2026-05-06 17:14 43.54574 5.59636 20410 ft 377 kts 69°
2026-05-06 17:15 43.55513 5.62981 20096 ft 372 kts 69°
2026-05-06 17:15 43.56407 5.66303 19775 ft 368 kts 73°
2026-05-06 17:15 43.56930 5.69725 19467 ft 363 kts 85°
2026-05-06 17:15 43.57158 5.73184 19164 ft 361 kts 86°
2026-05-06 17:16 43.57384 5.76628 18862 ft 359 kts 85°
2026-05-06 17:16 43.57616 5.80089 18543 ft 357 kts 85°
2026-05-06 17:16 43.57845 5.83480 18252 ft 354 kts 85°
2026-05-06 17:16 43.58071 5.86846 17931 ft 351 kts 85°
2026-05-06 17:17 43.58297 5.90191 17635 ft 349 kts 85°
2026-05-06 17:17 43.58519 5.93513 17344 ft 348 kts 85°
2026-05-06 17:17 43.58732 5.96783 17047 ft 346 kts 85°
2026-05-06 17:17 43.58945 6.00082 16756 ft 344 kts 85°
2026-05-06 17:18 43.59153 6.03368 16471 ft 343 kts 85°
2026-05-06 17:18 43.59358 6.06636 16178 ft 341 kts 86°
2026-05-06 17:18 43.59310 6.09892 15883 ft 339 kts 99°
2026-05-06 17:18 43.58784 6.13033 15605 ft 335 kts 112°
2026-05-06 17:19 43.57966 6.16030 15333 ft 333 kts 113°
2026-05-06 17:19 43.57140 6.19013 15059 ft 332 kts 113°
2026-05-06 17:19 43.56318 6.21983 14639 ft 334 kts 113°
2026-05-06 17:19 43.55478 6.25012 14090 ft 340 kts 113°
2026-05-06 17:20 43.54641 6.28047 13741 ft 338 kts 113°
2026-05-06 17:20 43.53810 6.31070 13353 ft 336 kts 113°
2026-05-06 17:20 43.52985 6.34069 12993 ft 333 kts 113°
2026-05-06 17:20 43.52169 6.37037 12650 ft 330 kts 113°
2026-05-06 17:21 43.51355 6.39991 12289 ft 328 kts 113°
2026-05-06 17:21 43.50435 6.42844 11939 ft 323 kts 123°
2026-05-06 17:21 43.49124 6.45282 11680 ft 312 kts 136°
2026-05-06 17:21 43.47633 6.47427 11393 ft 307 kts 137°
2026-05-06 17:22 43.46160 6.49541 11151 ft 304 kts 137°
2026-05-06 17:22 43.44701 6.51639 10896 ft 303 kts 137°
2026-05-06 17:22 43.43246 6.53734 10629 ft 303 kts 137°
2026-05-06 17:22 43.41791 6.55828 10378 ft 302 kts 137°
2026-05-06 17:23 43.40341 6.57912 10125 ft 301 kts 137°
2026-05-06 17:23 43.38898 6.59990 9918 ft 300 kts 137°
2026-05-06 17:23 43.37606 6.62249 9795 ft 305 kts 121°
2026-05-06 17:23 43.36966 6.65024 9667 ft 309 kts 97°
2026-05-06 17:24 43.37094 6.67977 9532 ft 311 kts 81°
2026-05-06 17:24 43.37430 6.70912 9393 ft 310 kts 82°
2026-05-06 17:24 43.37758 6.73832 9257 ft 309 kts 82°
2026-05-06 17:24 43.38084 6.76750 9117 ft 309 kts 82°
2026-05-06 17:25 43.38408 6.79673 8992 ft 308 kts 82°
2026-05-06 17:25 43.38730 6.82575 8851 ft 306 kts 82°
2026-05-06 17:25 43.39050 6.85474 8711 ft 309 kts 82°
2026-05-06 17:25 43.39372 6.88393 8582 ft 309 kts 82°
2026-05-06 17:26 43.39691 6.91298 8451 ft 307 kts 82°
2026-05-06 17:26 43.40008 6.94203 8323 ft 308 kts 82°
2026-05-06 17:26 43.40319 6.97080 8183 ft 307 kts 82°
2026-05-06 17:26 43.40611 6.99788 8074 ft 304 kts 83°
2026-05-06 17:27 43.40906 7.02502 7973 ft 304 kts 82°
2026-05-06 17:27 43.41220 7.05386 7979 ft 305 kts 83°
2026-05-06 17:27 43.41531 7.08259 7985 ft 301 kts 82°
2026-05-06 17:27 43.41856 7.11110 7994 ft 302 kts 78°
2026-05-06 17:28 43.42399 7.13917 7883 ft 302 kts 74°
2026-05-06 17:28 43.42962 7.16694 7758 ft 299 kts 74°
2026-05-06 17:28 43.43523 7.19456 7628 ft 300 kts 74°
2026-05-06 17:28 43.44086 7.22234 7504 ft 300 kts 74°
2026-05-06 17:29 43.44638 7.24966 7375 ft 297 kts 74°
2026-05-06 17:29 43.45189 7.27706 7249 ft 298 kts 75°
2026-05-06 17:29 43.45742 7.30459 7125 ft 297 kts 74°
2026-05-06 17:29 43.46287 7.33186 7001 ft 293 kts 74°
2026-05-06 17:30 43.46833 7.35905 6882 ft 295 kts 74°
2026-05-06 17:30 43.47379 7.38630 6759 ft 294 kts 74°
2026-05-06 17:30 43.47922 7.41340 6547 ft 293 kts 74°
2026-05-06 17:30 43.48463 7.44050 6078 ft 294 kts 74°
2026-05-06 17:31 43.49093 7.46725 5595 ft 292 kts 62°
2026-05-06 17:31 43.50343 7.48849 5217 ft 278 kts 32°
2026-05-06 17:31 43.51981 7.49957 5049 ft 250 kts
2026-05-06 17:31 43.53609 7.50124 4934 ft 222 kts 346°
2026-05-06 17:32 43.55082 7.49780 4828 ft 212 kts 346°
2026-05-06 17:32 43.56539 7.49424 4725 ft 212 kts 343°
2026-05-06 17:32 43.57872 7.48696 4615 ft 204 kts 323°
2026-05-06 17:32 43.58917 7.47401 4354 ft 202 kts 304°
2026-05-06 17:33 43.59725 7.45816 4080 ft 202 kts 302°
2026-05-06 17:33 43.60526 7.44244 3803 ft 203 kts 303°
2026-05-06 17:33 43.61338 7.42653 3529 ft 203 kts 303°
2026-05-06 17:33 43.62153 7.41061 3254 ft 204 kts 303°
2026-05-06 17:34 43.62971 7.39463 2986 ft 201 kts 302°
2026-05-06 17:34 43.63747 7.37943 2734 ft 188 kts 302°
2026-05-06 17:34 43.64490 7.36486 2474 ft 185 kts 303°
2026-05-06 17:34 43.65224 7.35044 2229 ft 183 kts 302°
2026-05-06 17:35 43.65933 7.33654 2007 ft 169 kts 301°
2026-05-06 17:35 43.66588 7.32375 1765 ft 158 kts 300°
2026-05-06 17:35 43.67207 7.31160 1548 ft 152 kts 298°
2026-05-06 17:36 43.68179 7.29256 1210 ft 140 kts 300°
2026-05-06 17:36 43.68700 7.28149 1009 ft 134 kts 289°
2026-05-06 17:36 43.68904 7.26941 818 ft 128 kts 267°
2026-05-06 17:36 43.68767 7.25761 642 ft 126 kts 247°
2026-05-06 17:37 43.68324 7.24756 482 ft 124 kts 227°
2026-05-06 17:37 43.67727 7.23919 331 ft 120 kts 228°
2026-05-06 17:37 43.67140 7.23096 157 ft 121 kts 226°
2026-05-06 17:37 43.66566 7.22310 30 ft 108 kts 225°
2026-05-06 17:38 43.66133 7.21711 22 ft 66 kts 225°
2026-05-06 17:38 43.65855 7.21333 22 ft 50 kts 225°
2026-05-06 17:38 43.65646 7.21046 24 ft 25 kts 224°
2026-05-06 17:38 43.65655 7.20909 22 ft 17 kts 323°
2026-05-06 17:39 43.65773 7.20873 22 ft 17 kts 352°
2026-05-06 17:39 43.65886 7.20848 22 ft 16 kts 350°
2026-05-06 17:39 43.65991 7.20822 22 ft 15 kts 349°
2026-05-06 17:39 43.66088 7.20796 22 ft 14 kts 349°
2026-05-06 17:40 43.66176 7.20779 24 ft 12 kts 353°
2026-05-06 17:40 43.66230 7.20764 25 ft 4 kts 328°
2026-05-06 17:40 43.66235 7.20731 22 ft 4 kts 261°
2026-05-06 17:40 43.66230 7.20688 23 ft 4 kts 260°
2026-05-06 17:41 43.66227 7.20664 22 ft 0 kts 259°